Time,TemperatureF,DewpointF,PressureIn,WindDirection,WindDirectionDegrees,WindSpeedMPH,WindSpeedGustMPH,Humidity,HourlyPrecipIn,Conditions,Clouds,dailyrainin,SoftwareType,DateUTC
2013-07-15 21:49:00,76.4,72.9,30.26,NW,315,0.0,3.0,89,0.00,,,0.01,Wunderground v.1.15,2013-07-16 01:49:00,
2013-07-15 21:55:00,76.4,72.9,30.26,NW,315,0.0,0.0,89,0.00,,,0.01,Wunderground v.1.15,2013-07-16 01:55:00,
2013-07-15 22:00:00,76.4,73.2,30.26,NW,315,0.0,0.0,90,0.00,,,0.01,Wunderground v.1.15,2013-07-16 02:00:00,
2013-07-15 22:05:00,76.3,73.1,30.26,NW,315,0.0,0.0,90,0.00,,,0.01,Wunderground v.1.15,2013-07-16 02:05:00,
2013-07-15 22:11:00,76.2,73.1,30.26,NW,315,0.0,0.0,90,0.00,,,0.01,Wunderground v.1.15,2013-07-16 02:11:00,
2013-07-15 22:17:00,76.1,73.0,30.26,NW,315,0.0,0.0,90,0.00,,,0.01,Wunderground v.1.15,2013-07-16 02:17:00,
2013-07-15 22:23:00,76.0,72.9,30.26,NW,315,0.0,0.0,90,0.00,,,0.01,Wunderground v.1.15,2013-07-16 02:23:00,
2013-07-15 22:29:00,75.9,72.4,30.26,NW,315,0.0,1.0,89,0.00,,,0.01,Wunderground v.1.15,2013-07-16 02:29:00,
2013-07-15 22:35:00,75.7,72.6,30.26,NW,315,0.0,1.0,90,0.00,,,0.01,Wunderground v.1.15,2013-07-16 02:35:00,
2013-07-15 22:40:00,75.6,72.5,30.26,NW,315,0.0,1.0,90,0.00,,,0.01,Wunderground v.1.15,2013-07-16 02:40:00,
2013-07-15 22:46:00,75.5,72.4,30.26,NW,315,0.0,1.0,90,0.00,,,0.01,Wunderground v.1.15,2013-07-16 02:46:00,
2013-07-15 22:52:00,75.4,72.3,30.26,NW,315,0.0,1.0,90,0.00,,,0.01,Wunderground v.1.15,2013-07-16 02:52:00,
2013-07-15 22:57:00,75.3,71.8,30.26,NW,315,0.0,1.0,89,0.00,,,0.01,Wunderground v.1.15,2013-07-16 02:57:00,
2013-07-15 23:03:00,75.1,72.0,30.26,NW,315,0.0,0.0,90,0.00,,,0.01,Wunderground v.1.15,2013-07-16 03:03:00,
2013-07-15 23:08:00,74.9,72.1,30.26,NW,315,0.0,0.0,91,0.00,,,0.01,Wunderground v.1.15,2013-07-16 03:08:00,
2013-07-15 23:14:00,74.6,71.8,30.25,NW,315,0.0,0.0,91,0.00,,,0.01,Wunderground v.1.15,2013-07-16 03:14:00,
2013-07-15 23:19:00,74.5,71.7,30.25,NW,315,0.0,0.0,91,0.00,,,0.01,Wunderground v.1.15,2013-07-16 03:19:00,
2013-07-15 23:25:00,74.2,71.4,30.26,NW,315,0.0,0.0,91,0.00,,,0.01,Wunderground v.1.15,2013-07-16 03:25:00,
2013-07-15 23:31:00,74.0,71.5,30.26,NW,315,0.0,1.0,92,0.00,,,0.01,Wunderground v.1.15,2013-07-16 03:31:00,
2013-07-15 23:37:00,73.9,71.7,30.26,NW,315,0.0,1.0,93,0.00,,,0.01,Wunderground v.1.15,2013-07-16 03:37:00,
2013-07-15 23:42:00,73.7,71.2,30.26,NW,315,0.0,1.0,92,0.00,,,0.01,Wunderground v.1.15,2013-07-16 03:42:00,
2013-07-15 23:47:00,73.5,71.0,30.26,NW,315,0.0,1.0,92,0.00,,,0.01,Wunderground v.1.15,2013-07-16 03:47:00,
2013-07-15 23:53:00,73.3,71.2,30.26,NW,315,0.0,1.0,93,0.00,,,0.01,Wunderground v.1.15,2013-07-16 03:53:00,
2013-07-15 23:59:00,73.3,71.2,30.26,NW,315,0.0,1.0,93,0.00,,,0.01,Wunderground v.1.15,2013-07-16 03:59:00,